Location: Lugano
(46.0000°N, 8.9670°E)
Time: 19:21:04
(UTC+02:00)

LilacSat-2 - Pass Details

Date: 21 May 2026
Orbit: 409 x 417 km, 97.5° (Epoch: 11 June)

Event Time Altitude Azimuth Distance (km) Brightness Sun altitude
Rises 21:49:23 0° 213° (SSW) 2,334 ? -8.3°
Maximum altitude 21:53:38 11° 269° (W) 1,408 ? -8.8°
Drops below altitude 10° 21:54:43 10° 289° (WNW) 1,489 ? -9.0°
Sets 21:57:56 0° 326° (NW) 2,363 ? -9.4°
